COSMOS 2460 (732)

Last updated on Oct. 25, 2020, 5:57 a.m. UTC

1 36402U 10007C   20298.11640929 -.00000093  00000-0  10000-3 0  9993
2 36402  65.8998  23.5227 0002046 175.3340  80.5724  2.13101392 82871
UTC
Height (km)
Latitude
Longitude
Inclination
Orbital Period
UTC large
Height (km)
Speed (km/s)
/
Latitude / Longitude
Inclination (degrees)
Orbital Period (minutes)
Azimuth
Elevation
Range (km)
Doppler Factor
iOS Compass Heading
iOS Angle

Next 30 passes for location: Hong Kong

Rise time Rise Azimuth (degrees) Set time Set Azimuth (degrees) Duration Max altitude (degrees)

No matching passes for this satellites